星链-3843 (STARLINK-3843 )

导读

STARLINK-3843(星链-3843)是美国太空探索技术公司SpaceX研发运营的星链低轨互联网卫星,属于Starlink v1.5平台,2022年4月29日发射入轨,目前在轨稳定运行。该卫星运行于近地轨道,近地点约538.8公里,远地点约540.7公里,轨道倾角53.22度,周期约95.4分钟,为星链星座提供全球高速低延迟互联网接入服务,助力偏远区域网络覆盖。

Basic Information
目录编号:
52341
目录名称:
STARLINK-3843
国际标识:
2022-045L
轨道中心:
EARTH
卫星名称:
星链-3843
卫星全名:
星链-3843 (STARLINK-3843 )
卫星状态:
在轨 (已飞行1596 天)
发射日期:
2022-04-29 UTC
国别 :
美国 (US)
星等 :
--
This satellite is enrolled in the Space Conjunction Data Service (SCDS) and the current flight risk assessment level is: No High Risk
Orbit Information
数据来源 国际轨道数据
星历时间: 2026-09-11T14:00:02+0800
11小时前
查看轨道信息
半长轴: 6862.49km
偏心率: 0.0001881
轨道倾角: 53.159°
近地点辐角 95.411°
升交点赤经 94.597°
平近点角 95.836°
近地点: 483.062km
远地点: 485.644km
周期: 94.294分钟
每日圈数: 15.271449
Detailed Information
固有亮度:
5
最大亮度:
2.5
卫星平台:
Starlink v1.5
覆盖范围:
全球
运营商:
太空探索技术公司
运营商所在国:
美国
制造商(研发单位):
太空探索技术公司
制造商所在国:
美国
使用方式:
暂无
Satellite Introduction
星链(Starlink)计划是由太空探索技术公司(SpaceX)提出的一个巨型低轨卫星互联网星座项目,计划在2019年至2024年间在太空搭建由约1.2万颗卫星组成的“星链”网络,其中1584颗将部署在地球上空550千米处的近地轨道,并从2020年开始工作。该卫星仍在工作。
2D Orbit Map
3D Orbit Map
Orbit Altitude Analysis Chart
Orbit Inclination Analysis Chart
Orbit Comprehensive Analysis Chart
View Comprehensive Chart
Conjunction Data List
Event ID Objects TCA Miss Dist (km) Collision Risk Probability Collision Risk Index (CRI) Action
CDM_260912-203805-234105-992321
2026-09-12T
20:38:40+0000
0.426 km
远距离
2.072084E-4 高风险 0.81
CDM_260914-040405-234105-844321
2026-09-14T
04:04:09+0000
0.415 km
远距离
1.203316E-4 高风险 0.77
CDM_260912-131205-234105-974921
2026-09-12T
13:12:10+0000
0.616 km
远距离
9.419306E-5 中风险 0.74
CDM_260912-190005-234106-645621
2026-09-12T
19:00:17+0000
0.650 km
远距离
8.284622E-5 中风险 0.73
CDM_260912-065005-234105-812121
2026-09-12T
06:50:21+0000
0.697 km
远距离
4.995839E-5 中风险 0.69
CDM_260912-223405-234106-215321
2026-09-12T
22:34:40+0000
0.745 km
远距离
4.809806E-5 中风险 0.69
CDM_260913-232105-234105-954021
2026-09-13T
23:21:25+0000
0.933 km
远距离
2.130204E-5 中风险 0.62
CDM_260912-003705-234106-196721
2026-09-12T
00:37:02+0000
1.014 km
极远距离
1.863258E-5 中风险 0.6
CDM_260912-155805-234105-558821
2026-09-12T
15:58:13+0000
1.070 km
极远距离
1.094417E-5 中风险 0.56
CDM_260912-124705-234105-546821
2026-09-12T
12:47:10+0000
1.243 km
极远距离
8.584371E-6 低风险 0.54
Miss Distance Evolution Trend with All Objects
Collision Probability Evolution Trend with All Objects